SL-19 DEB, 23487

Orbit data source: Space-Track

SL-19 DEB, 23487 is space debris in LEO originally from a launch on Mon, 26 Dec 1994 UTC launched from the Tyuratam Missile And Space Complex (TTMTR). Debris objects in space refer to the collection of defunct objects orbiting the Earth. Examples of debris include non-operational satellites, rocket bodies, and fragments generated from explosions, collisions, or faulty payload assembly.

Loading next visibility...
Identifier
23487, 1994-085K
Orbit
LEO
Country
Flag of CISCIS
Related business
Manufacturer
Unknown
Mission
Spacecraft
Bus & Motor
Unknown
Mass
Unknown
Launch date (UTC)
1994-12-26 (31 years ago)
Launch vehicle
Unknown
Launch site
Tyuratam Missile And Space Complex (TTMTR)
Object type
Payload
Rocket body
Debris
Shape & HBR
Unknown shape, 0.2 m
Radar Cross Section
Small (<0.1 m²)

Expand to show TLE details & history
Last TLE update: 17 hours ago

TLE from 17 hours ago
0 SL-19 DEB
1 23487U 94085K   26062.10126786 -.00000006  00000-0  10008-2 0  9995
2 23487  64.9361  91.0332 0173878 204.9521 187.7436 11.30413509286964
Epoch: 2026-03-03T02:25Z
TLE epoch observation values (Epoch: 2026-03-03T02:25:49.543Z)
Latitude
29.11984°
Longitude
-91.27809°
Altitude
2,155.314 km
Speed
6.779 km/s
True Right ascension
07h 04m 15s
True Declination
28° 59' 52"
Sunlit
Object was in daylight at epoch
Visualization orbit readout
Latitude
Unknown
Longitude
Unknown
Altitude
Unknown
Speed
Unknown
Apparent Right ascension
Unknown
Apparent Declination
Unknown
Sunlit
N/A
Visualization observer readout
Local Sidereal Time
23:30:54
Azimuth
Unknown
Elevation
Unknown
Doppler factor
Unknown
Orbital elements
Apogee altitude
2,152.883 km
Perigee altitude
1,861.282 km
Semi-major axis
8,385.219 km
Eccentricity
0.01739
Inclination
64.9361°
RAAN
91.0332°
Arg. of periapsis
204.9521°
True anomaly
187.4808°
Mean anomaly
187.7436°
Eccentric anomaly
187.61164°
Mean motion
2.82665 °/min
Orbital period
127.36 mins
BSTAR
0.0010008
Loading maneuver chart data...
Computing Atmospheric mass density...
Loading historical data...
Loading historical data...
Loading historical data...
Loading historical data...
Loading historical data...
Loading historical data...
Loading historical data...

Documentation

Showing up to 5 results
|